| time (UTC) | temp F | wind direction | speed knots | gust knots | rain 1hr in | rain 24hr in | rain mn in | humidity % | barometer mb |
| 20260504185622 | 75 | 278 | 1.7 | 2.6 | 0.00 | 0.00 | 0.00 | 37 | 1012.1 |
| 20260504185119 | 74 | 278 | 0.0 | 0.0 | 0.00 | 0.00 | 0.00 | 36 | 1012.5 |
| 20260504184615 | 74 | 261 | 2.6 | 2.6 | 0.00 | 0.00 | 0.00 | 36 | 1012.3 |
| 20260504184110 | 74 | 301 | 0.9 | 1.7 | 0.00 | 0.00 | 0.00 | 35 | 1012.5 |
| 20260504183607 | 75 | 277 | 0.0 | 0.9 | 0.00 | 0.00 | 0.00 | 37 | 1012.5 |
| 20260504183105 | 75 | 273 | 0.9 | 0.9 | 0.00 | 0.00 | 0.00 | 34 | 1012.5 |
| 20260504182602 | 75 | 271 | 1.7 | 1.7 | 0.00 | 0.00 | 0.00 | 34 | 1012.7 |
| 20260504182059 | 74 | 291 | 1.7 | 1.7 | 0.00 | 0.00 | 0.00 | 34 | 1012.6 |
| 20260504181556 | 75 | 246 | 2.6 | 2.6 | 0.00 | 0.00 | 0.00 | 35 | 1012.7 |
| 20260504181054 | 75 | 272 | 0.9 | 0.9 | 0.00 | 0.00 | 0.00 | 34 | 1012.9 |
| 20260504180553 | 74 | 228 | 1.7 | 1.7 | 0.00 | 0.00 | 0.00 | 35 | 1012.7 |
| 20260504180052 | 74 | 327 | 0.9 | 0.9 | 0.00 | 0.00 | 0.00 | 35 | 1012.7 |
| 20260504175548 | 74 | 250 | 0.9 | 1.7 | 0.00 | 0.00 | 0.00 | 35 | 1012.7 |
| 20260504175045 | 74 | 182 | 6.1 | 7.0 | 0.00 | 0.00 | 0.00 | 33 | 1012.7 |
| 20260504174543 | 74 | 264 | 1.7 | 1.7 | 0.00 | 0.00 | 0.00 | 34 | 1012.8 |
| 20260504174040 | 74 | 34 | 0.9 | 0.9 | 0.00 | 0.00 | 0.00 | 36 | 1012.9 |
| 20260504173537 | 74 | 314 | 0.9 | 1.7 | 0.00 | 0.00 | 0.00 | 40 | 1013.2 |
| 20260504173034 | 72 | 21 | 0.9 | 1.7 | 0.00 | 0.00 | 0.00 | 39 | 1013.1 |
| 20260504172530 | 73 | 254 | 0.9 | 1.7 | 0.00 | 0.00 | 0.00 | 35 | 1013.3 |
| 20260504172027 | 73 | 233 | 1.7 | 2.6 | 0.00 | 0.00 | 0.00 | 37 | 1013.5 |
| 20260504171524 | 73 | 310 | 2.6 | 2.6 | 0.00 | 0.00 | 0.00 | 35 | 1013.3 |
| 20260504171021 | 72 | 244 | 0.9 | 1.7 | 0.00 | 0.00 | 0.00 | 35 | 1013.5 |
| 20260504170516 | 73 | 280 | 0.9 | 2.6 | 0.00 | 0.00 | 0.00 | 34 | 1013.5 |
| 20260504160437 | 72 | 113 | 2.6 | 2.6 | 0.00 | 0.00 | 0.00 | 38 | 1014.2 |
| 20260504150900 | 69 | 249 | 0.0 | 0.0 | 0.00 | 0.00 | 0.00 | 48 | 1014.5 |
| 20260504150357 | 69 | 268 | 0.0 | 0.0 | 0.00 | 0.00 | 0.00 | 45 | 1014.5 |
| 20260504141327 | 67 | 249 | 1.7 | 1.7 | 0.00 | 0.00 | 0.00 | 53 | 1014.8 |
| 20260504140823 | 66 | 150 | 1.7 | 2.6 | 0.00 | 0.00 | 0.00 | 53 | 1014.7 |
| 20260504140319 | 65 | 261 | 0.9 | 1.7 | 0.00 | 0.00 | 0.00 | 54 | 1014.9 |
| 20260504130748 | 62 | 351 | 2.6 | 4.3 | 0.00 | 0.00 | 0.00 | 66 | 1015.6 |
| 20260504130244 | 62 | 262 | 1.7 | 2.6 | 0.00 | 0.00 | 0.00 | 67 | 1015.5 |
| 20260504120208 | 57 | 239 | 0.0 | 0.9 | 0.00 | 0.00 | 0.00 | 80 | 1016.0 |
| 20260504110635 | 51 | 276 | 0.0 | 0.0 | 0.00 | 0.00 | 0.00 | 87 | 1016.0 |
| 20260504110131 | 51 | 260 | 0.0 | 0.0 | 0.00 | 0.00 | 0.00 | 87 | 1016.0 |
| 20260504100551 | 49 | 272 | 0.0 | 0.9 | 0.00 | 0.00 | 0.00 | 87 | 1016.0 |
| 20260504081945 | 47 | 139 | 0.9 | 1.7 | 0.00 | 0.00 | 0.00 | 85 | 1016.1 |
| 20260504081442 | 47 | 253 | 0.0 | 0.0 | 0.00 | 0.00 | 0.00 | 84 | 1016.3 |
| 20260504080938 | 47 | 241 | 0.9 | 0.9 | 0.00 | 0.00 | 0.00 | 84 | 1016.2 |
| 20260504080435 | 47 | 260 | 2.6 | 2.6 | 0.00 | 0.00 | 0.00 | 84 | 1016.2 |
| 20260504070403 | 47 | 239 | 0.9 | 0.9 | 0.00 | 0.00 | 0.00 | 77 | 1016.2 |
| 20260504050750 | 46 | 244 | 0.0 | 0.0 | 0.00 | 0.00 | 0.00 | 72 | 1016.3 |
| 20260504050248 | 46 | 257 | 0.0 | 0.0 | 0.00 | 0.00 | 0.00 | 73 | 1016.3 |
| 20260504045745 | 45 | 257 | 0.0 | 0.0 | 0.00 | 0.00 | 0.00 | 74 | 1016.4 |
| 20260504045239 | 45 | 256 | 0.0 | 0.0 | 0.00 | 0.00 | 0.00 | 74 | 1016.5 |
| 20260504044737 | 45 | 266 | 0.0 | 0.0 | 0.00 | 0.00 | 0.00 | 76 | 1016.4 |
| 20260504044234 | 45 | 271 | 0.0 | 0.0 | 0.00 | 0.00 | 0.00 | 74 | 1016.1 |
| 20260504043731 | 45 | 267 | 0.0 | 0.0 | 0.00 | 0.00 | 0.00 | 74 | 1016.2 |
| 20260504043228 | 45 | 273 | 0.0 | 0.0 | 0.00 | 0.00 | 0.00 | 73 | 1016.2 |
| 20260504042726 | 45 | 286 | 0.0 | 0.0 | 0.00 | 0.00 | 0.00 | 74 | 1016.1 |
| 20260504042222 | 45 | 261 | 0.0 | 0.0 | 0.00 | 0.00 | 0.00 | 73 | 1016.2 |
| 20260504041718 | 45 | 267 | 0.0 | 0.0 | 0.00 | 0.00 | 0.00 | 73 | 1016.1 |
| 20260504041214 | 46 | 275 | 0.0 | 0.0 | 0.00 | 0.00 | 0.00 | 73 | 1016.1 |
| 20260504040711 | 45 | 231 | 0.0 | 0.0 | 0.00 | 0.00 | 0.00 | 72 | 1016.0 |
| 20260504040208 | 45 | 267 | 0.0 | 0.0 | 0.00 | 0.00 | 0.00 | 74 | 1016.0 |
| 20260504035704 | 45 | 274 | 0.0 | 0.0 | 0.00 | 0.00 | 0.00 | 72 | 1015.9 |
| 20260504035202 | 45 | 293 | 0.0 | 0.0 | 0.00 | 0.00 | 0.00 | 72 | 1015.9 |
| 20260504034659 | 46 | 258 | 0.0 | 0.0 | 0.00 | 0.00 | 0.00 | 72 | 1016.0 |
| 20260504034156 | 46 | 241 | 0.9 | 0.9 | 0.00 | 0.00 | 0.00 | 71 | 1015.8 |
| 20260504033654 | 46 | 257 | 0.0 | 0.0 | 0.00 | 0.00 | 0.00 | 71 | 1015.9 |
| 20260504033151 | 46 | 260 | 0.0 | 0.0 | 0.00 | 0.00 | 0.00 | 70 | 1015.9 |
| 20260504032647 | 46 | 262 | 0.0 | 0.0 | 0.00 | 0.00 | 0.00 | 69 | 1015.8 |
| 20260504032145 | 46 | 262 | 0.0 | 0.0 | 0.00 | 0.00 | 0.00 | 69 | 1015.6 |
| 20260504031642 | 46 | 258 | 0.0 | 0.0 | 0.00 | 0.00 | 0.00 | 68 | 1015.5 |
| 20260504031138 | 46 | 251 | 0.0 | 0.0 | 0.00 | 0.00 | 0.00 | 67 | 1015.6 |
| 20260504030634 | 46 | 254 | 0.0 | 0.0 | 0.00 | 0.00 | 0.00 | 67 | 1015.5 |
| 20260504030131 | 46 | 254 | 0.0 | 0.0 | 0.00 | 0.00 | 0.00 | 66 | 1015.6 |
| 20260504025628 | 47 | 252 | 0.0 | 0.0 | 0.00 | 0.00 | 0.00 | 66 | 1015.7 |
| 20260504025125 | 47 | 241 | 0.0 | 0.0 | 0.00 | 0.00 | 0.00 | 65 | 1015.7 |
| 20260504024622 | 47 | 251 | 0.0 | 0.0 | 0.00 | 0.00 | 0.00 | 65 | 1015.6 |
| 20260504024119 | 47 | 243 | 0.0 | 0.0 | 0.00 | 0.00 | 0.00 | 64 | 1015.8 |
| 20260504023615 | 47 | 259 | 0.0 | 0.0 | 0.00 | 0.00 | 0.00 | 64 | 1015.6 |
| 20260504023111 | 47 | 255 | 0.0 | 0.0 | 0.00 | 0.00 | 0.00 | 65 | 1015.8 |
| 20260504022608 | 47 | 257 | 0.0 | 0.0 | 0.00 | 0.00 | 0.00 | 64 | 1015.5 |
| 20260504022104 | 47 | 259 | 0.0 | 0.0 | 0.00 | 0.00 | 0.00 | 66 | 1015.7 |
| 20260504021602 | 47 | 234 | 1.7 | 2.6 | 0.00 | 0.00 | 0.00 | 65 | 1015.8 |
| 20260504021059 | 47 | 241 | 0.0 | 0.0 | 0.00 | 0.00 | 0.00 | 65 | 1015.7 |
| 20260504020555 | 47 | 258 | 0.0 | 0.0 | 0.00 | 0.00 | 0.00 | 66 | 1015.5 |
| 20260504020052 | 48 | 264 | 0.0 | 0.0 | 0.00 | 0.00 | 0.00 | 65 | 1015.4 |
| 20260504015548 | 48 | 256 | 0.0 | 0.0 | 0.00 | 0.00 | 0.00 | 63 | 1015.5 |
| 20260504015044 | 48 | 255 | 0.0 | 0.0 | 0.00 | 0.00 | 0.00 | 62 | 1015.7 |
| 20260504014541 | 48 | 258 | 0.0 | 0.0 | 0.00 | 0.00 | 0.00 | 62 | 1015.6 |
| 20260504014038 | 48 | 255 | 0.0 | 0.0 | 0.00 | 0.00 | 0.00 | 61 | 1015.5 |
| 20260504013535 | 48 | 259 | 0.0 | 0.0 | 0.00 | 0.00 | 0.00 | 63 | 1015.4 |
| 20260504013032 | 49 | 260 | 0.0 | 0.0 | 0.00 | 0.00 | 0.00 | 61 | 1015.5 |
| 20260504012530 | 49 | 259 | 0.0 | 0.0 | 0.00 | 0.00 | 0.00 | 62 | 1015.4 |
| 20260504012027 | 49 | 251 | 0.0 | 0.0 | 0.00 | 0.00 | 0.00 | 61 | 1015.5 |
| 20260504011524 | 49 | 256 | 0.0 | 0.0 | 0.00 | 0.00 | 0.00 | 59 | 1015.2 |
| 20260504011020 | 50 | 255 | 0.0 | 0.0 | 0.00 | 0.00 | 0.00 | 58 | 1015.1 |
| 20260504010516 | 50 | 257 | 0.0 | 0.0 | 0.00 | 0.00 | 0.00 | 59 | 1015.0 |
| 20260504010012 | 50 | 257 | 0.0 | 0.0 | 0.00 | 0.00 | 0.00 | 58 | 1015.0 |
| 20260504005509 | 50 | 252 | 0.0 | 0.0 | 0.00 | 0.00 | 0.00 | 56 | 1015.2 |
| 20260504005006 | 50 | 255 | 0.0 | 0.0 | 0.00 | 0.00 | 0.00 | 57 | 1015.0 |
| 20260504004504 | 50 | 257 | 0.0 | 0.0 | 0.00 | 0.00 | 0.00 | 56 | 1015.0 |
| 20260504004001 | 50 | 257 | 0.0 | 0.0 | 0.00 | 0.00 | 0.00 | 56 | 1015.1 |
| 20260504003456 | 50 | 259 | 0.0 | 0.0 | 0.00 | 0.00 | 0.00 | 60 | 1015.0 |
| 20260504002954 | 51 | 259 | 0.0 | 0.0 | 0.00 | 0.00 | 0.00 | 57 | 1015.1 |
| 20260504002451 | 51 | 254 | 0.0 | 0.0 | 0.00 | 0.00 | 0.00 | 56 | 1014.7 |
| 20260504001948 | 51 | 255 | 0.0 | 0.0 | 0.00 | 0.00 | 0.00 | 54 | 1014.8 |
| 20260504001445 | 52 | 257 | 0.0 | 0.0 | 0.00 | 0.00 | 0.00 | 54 | 1014.3 |
| 20260504000942 | 52 | 258 | 0.0 | 0.0 | 0.00 | 0.00 | 0.00 | 53 | 1014.6 |
| 20260504000439 | 52 | 257 | 0.0 | 0.0 | 0.00 | 0.00 | 0.00 | 54 | 1014.3 |
| 20260503235936 | 53 | 258 | 0.0 | 0.0 | 0.00 | 0.00 | 0.00 | 53 | 1014.4 |
| 20260503235434 | 53 | 257 | 0.0 | 0.0 | 0.00 | 0.00 | 0.00 | 52 | 1014.5 |
| 20260503234931 | 54 | 258 | 0.0 | 0.0 | 0.00 | 0.00 | 0.00 | 50 | 1014.4 |
| 20260503234429 | 54 | 257 | 0.0 | 0.0 | 0.00 | 0.00 | 0.00 | 48 | 1014.4 |
| 20260503233927 | 55 | 254 | 0.0 | 0.0 | 0.00 | 0.00 | 0.00 | 48 | 1014.3 |
| 20260503233423 | 55 | 251 | 0.0 | 0.0 | 0.00 | 0.00 | 0.00 | 47 | 1014.2 |
| 20260503232919 | 55 | 257 | 0.0 | 0.0 | 0.00 | 0.00 | 0.00 | 47 | 1014.4 |
| 20260503232416 | 56 | 255 | 0.0 | 0.0 | 0.00 | 0.00 | 0.00 | 45 | 1014.3 |
| 20260503231914 | 56 | 245 | 0.0 | 0.0 | 0.00 | 0.00 | 0.00 | 44 | 1014.3 |
| 20260503231411 | 56 | 264 | 0.0 | 0.0 | 0.00 | 0.00 | 0.00 | 44 | 1014.4 |
| 20260503230908 | 57 | 346 | 0.0 | 0.9 | 0.00 | 0.00 | 0.00 | 43 | 1014.4 |
| 20260503230404 | 57 | 275 | 0.0 | 0.0 | 0.00 | 0.00 | 0.00 | 42 | 1014.2 |
| 20260503225902 | 58 | 341 | 0.9 | 1.7 | 0.00 | 0.00 | 0.00 | 41 | 1014.3 |
| 20260503225358 | 58 | 293 | 0.0 | 0.9 | 0.00 | 0.00 | 0.00 | 40 | 1014.3 |
| 20260503224854 | 58 | 258 | 0.9 | 1.7 | 0.00 | 0.00 | 0.00 | 40 | 1014.2 |
| 20260503224351 | 58 | 32 | 0.9 | 0.9 | 0.00 | 0.00 | 0.00 | 38 | 1014.5 |
| 20260503223849 | 58 | 87 | 0.0 | 0.9 | 0.00 | 0.00 | 0.00 | 38 | 1014.2 |
| 20260503223347 | 58 | 354 | 2.6 | 2.6 | 0.00 | 0.00 | 0.00 | 39 | 1014.3 |
| 20260503222842 | 58 | 279 | 0.9 | 0.9 | 0.00 | 0.00 | 0.00 | 38 | 1014.4 |
| 20260503222341 | 58 | 340 | 1.7 | 1.7 | 0.00 | 0.00 | 0.00 | 37 | 1014.3 |
| 20260503221838 | 58 | 308 | 1.7 | 1.7 | 0.00 | 0.00 | 0.00 | 40 | 1014.3 |
| 20260503221337 | 58 | 17 | 1.7 | 2.6 | 0.00 | 0.00 | 0.00 | 40 | 1014.3 |
| 20260503220832 | 58 | 350 | 1.7 | 1.7 | 0.00 | 0.00 | 0.00 | 41 | 1014.3 |
| 20260503220329 | 59 | 235 | 2.6 | 2.6 | 0.00 | 0.00 | 0.00 | 41 | 1014.3 |
| 20260503215826 | 59 | 277 | 1.7 | 2.6 | 0.00 | 0.00 | 0.00 | 39 | 1014.3 |
| 20260503215324 | 59 | 266 | 2.6 | 2.6 | 0.00 | 0.00 | 0.00 | 39 | 1014.2 |
| 20260503214821 | 59 | 272 | 2.6 | 4.3 | 0.00 | 0.00 | 0.00 | 40 | 1014.4 |
| 20260503214319 | 59 | 23 | 3.5 | 6.1 | 0.00 | 0.00 | 0.00 | 39 | 1014.3 |
| 20260503213816 | 58 | 323 | 1.7 | 1.7 | 0.00 | 0.00 | 0.00 | 41 | 1014.1 |
| 20260503213314 | 58 | 262 | 0.9 | 0.9 | 0.00 | 0.00 | 0.00 | 39 | 1014.1 |
| 20260503212810 | 59 | 21 | 1.7 | 2.6 | 0.00 | 0.00 | 0.00 | 40 | 1014.1 |
| 20260503212308 | 58 | 301 | 0.9 | 0.9 | 0.00 | 0.00 | 0.00 | 41 | 1014.0 |
| 20260503211805 | 58 | 222 | 4.3 | 5.2 | 0.00 | 0.00 | 0.00 | 40 | 1014.1 |
| 20260503211302 | 58 | 279 | 1.7 | 2.6 | 0.00 | 0.00 | 0.00 | 41 | 1014.2 |
| 20260503210801 | 60 | 242 | 2.6 | 2.6 | 0.00 | 0.00 | 0.00 | 40 | 1014.2 |
| 20260503210259 | 59 | 291 | 0.9 | 1.7 | 0.00 | 0.00 | 0.00 | 40 | 1013.9 |
| 20260503205754 | 58 | 34 | 1.7 | 1.7 | 0.00 | 0.00 | 0.00 | 40 | 1014.2 |
| 20260503205251 | 58 | 337 | 1.7 | 1.7 | 0.00 | 0.00 | 0.00 | 43 | 1014.2 |
| 20260503204748 | 58 | 316 | 3.5 | 4.3 | 0.00 | 0.00 | 0.00 | 39 | 1014.0 |
| 20260503204245 | 58 | 334 | 1.7 | 4.3 | 0.00 | 0.00 | 0.00 | 40 | 1014.2 |
| 20260503203743 | 59 | 285 | 0.9 | 2.6 | 0.00 | 0.00 | 0.00 | 41 | 1014.4 |
| 20260503203240 | 59 | 51 | 2.6 | 4.3 | 0.00 | 0.00 | 0.00 | 39 | 1014.2 |
| 20260503202737 | 59 | 206 | 1.7 | 4.3 | 0.00 | 0.00 | 0.00 | 38 | 1014.2 |
| 20260503202235 | 59 | 286 | 2.6 | 4.3 | 0.00 | 0.00 | 0.00 | 39 | 1014.1 |
| 20260503201732 | 59 | 292 | 3.5 | 4.3 | 0.00 | 0.00 | 0.00 | 39 | 1014.5 |
| 20260503201230 | 59 | 302 | 1.7 | 1.7 | 0.00 | 0.00 | 0.00 | 41 | 1014.3 |
| 20260503200726 | 59 | 269 | 3.5 | 4.3 | 0.00 | 0.00 | 0.00 | 41 | 1014.5 |
| 20260503200222 | 58 | 19 | 1.7 | 1.7 | 0.00 | 0.00 | 0.00 | 41 | 1014.3 |
| 20260503195719 | 58 | 311 | 4.3 | 5.2 | 0.00 | 0.00 | 0.00 | 40 | 1014.5 |
| 20260503195216 | 58 | 349 | 0.9 | 1.7 | 0.00 | 0.00 | 0.00 | 41 | 1014.6 |
| 20260503194714 | 58 | 330 | 2.6 | 2.6 | 0.00 | 0.00 | 0.00 | 41 | 1014.5 |
| 20260503194209 | 58 | 149 | 0.0 | 0.9 | 0.00 | 0.00 | 0.00 | 40 | 1014.5 |
| 20260503193706 | 58 | 327 | 0.9 | 1.7 | 0.00 | 0.00 | 0.00 | 42 | 1014.4 |
| 20260503193202 | 58 | 341 | 4.3 | 5.2 | 0.00 | 0.00 | 0.00 | 38 | 1014.5 |
| 20260503192657 | 58 | 339 | 2.6 | 2.6 | 0.00 | 0.00 | 0.00 | 39 | 1014.9 |
| 20260503192153 | 59 | 259 | 0.9 | 1.7 | 0.00 | 0.00 | 0.00 | 38 | 1014.8 |
| 20260503191649 | 58 | 280 | 0.9 | 0.9 | 0.00 | 0.00 | 0.00 | 41 | 1014.8 |
| 20260503191147 | 59 | 295 | 3.5 | 4.3 | 0.00 | 0.00 | 0.00 | 37 | 1014.8 |
| 20260503190644 | 59 | 326 | 1.7 | 1.7 | 0.00 | 0.00 | 0.00 | 40 | 1014.8 |
| 20260503190141 | 59 | 303 | 1.7 | 1.7 | 0.00 | 0.00 | 0.00 | 37 | 1014.5 |